,,Stat6,,Stat2,,Stat8,,Stat9,,Stat10,,Wind1,,Wind1,
time,status,PA1M_AVG,status,PR1M_SUM,status,RH1M_AVG,status,SR1M_AVG,status,TA1M_AVG,status,W1dAve1m,status,W1sAve1m,
2009-05-23, 00:00:00,VALID,916.951,VALID,0,VALID,100,VALID,-0.0339617,VALID,20.3109,VALID,187,VALID,0.00800305,
2009-05-23, 00:01:00,VALID,916.956,VALID,0,VALID,100,VALID,0,VALID,20.2979,VALID,159,VALID,0.161577,
2009-05-23, 00:02:00,VALID,916.944,VALID,0,VALID,100,VALID,0,VALID,20.2779,VALID,165,VALID,0.19371,
2009-05-23, 00:03:00,VALID,916.939,VALID,0,VALID,100,VALID,-0.0509425,VALID,20.2654,VALID,158,VALID,0.128089,
2009-05-23, 00:04:00,VALID,916.915,VALID,0,VALID,100,VALID,-0.0169808,VALID,20.242,VALID,180,VALID,0.0173399,
2009-05-23, 00:05:00,VALID,916.904,VALID,0,VALID,100,VALID,0,VALID,20.2422,VALID,175,VALID,0.0878906,
2009-05-23, 00:06:00,VALID,916.882,VALID,0,VALID,100,VALID,0,VALID,20.2225,VALID,169,VALID,0.506882,
2009-05-23, 00:07:00,VALID,916.862,VALID,0,VALID,100,VALID,-0.0509425,VALID,20.1838,VALID,160,VALID,1.00681,
2009-05-23, 00:08:00,VALID,916.848,VALID,0,VALID,100,VALID,-0.0169808,VALID,20.1479,VALID,165,VALID,0.0154433,
2009-05-23, 00:09:00,VALID,916.839,VALID,0,VALID,100,VALID,-0.0169808,VALID,20.1454,VALID,152,VALID,0.260764,
2009-05-23, 00:10:00,VALID,916.845,VALID,0,VALID,100,VALID,-0.0679233,VALID,20.1192,VALID,160,VALID,0.0081936,
2009-05-23, 00:11:00,VALID,916.842,VALID,0,VALID,100,VALID,0,VALID,20.1024,VALID,169,VALID,0.240473,
2009-05-23, 00:12:00,VALID,916.832,VALID,0,VALID,100,VALID,-0.0339617,VALID,20.0735,VALID,153,VALID,0.00958807,
2009-05-23, 00:13:00,VALID,916.818,VALID,0,VALID,100,VALID,0,VALID,20.05,VALID,158,VALID,0.017223,
2009-05-23, 00:14:00,VALID,916.817,VALID,0,VALID,100,VALID,-0.0169808,VALID,20.0572,VALID,161,VALID,0.744318,
2009-05-23, 00:15:00,VALID,916.801,VALID,0,VALID,100,VALID,-0.0169808,VALID,20.054,VALID,171,VALID,0.467797,
2009-05-23, 00:16:00,VALID,916.792,VALID,0,VALID,100,VALID,0.0169808,VALID,20.034,VALID,162,VALID,0.627887,
2009-05-23, 00:17:00,VALID,916.781,VALID,0,VALID,100,VALID,0,VALID,20.0343,VALID,153,VALID,0.65332,
2009-05-23, 00:18:00,VALID,916.782,VALID,0,VALID,100,VALID,0.0339617,VALID,20.0238,VALID,178,VALID,0.288491,
2009-05-23, 00:19:00,VALID,916.783,VALID,0,VALID,100,VALID,0,VALID,20.014,VALID,152,VALID,0.359933,
2009-05-23, 00:20:00,VALID,916.783,VALID,0,VALID,100,VALID,0.0169808,VALID,20.0078,VALID,158,VALID,0.225632,
2009-05-23, 00:21:00,VALID,916.767,VALID,0,VALID,100,VALID,0,VALID,19.9986,VALID,168,VALID,0.356326,
2009-05-23, 00:22:00,VALID,916.741,VALID,0,VALID,100,VALID,-0.0169808,VALID,19.9853,VALID,167,VALID,0.177827,
2009-05-23, 00:23:00,VALID,916.729,VALID,0,VALID,100,VALID,0.0169808,VALID,19.9724,VALID,173,VALID,0.297585,
2009-05-23, 00:24:00,VALID,916.71,VALID,0,VALID,100,VALID,0.0849042,VALID,19.9581,VALID,165,VALID,0.794567,
2009-05-23, 00:25:00,VALID,916.701,VALID,0,VALID,100,VALID,0.101885,VALID,19.9352,VALID,154,VALID,0.243459,
2009-05-23, 00:26:00,VALID,916.695,VALID,0,VALID,100,VALID,0.0849042,VALID,19.9119,VALID,144,VALID,0.104968,
2009-05-23, 00:27:00,VALID,916.689,VALID,0,VALID,100,VALID,0.101885,VALID,19.9132,VALID,135,VALID,0.173177,
2009-05-23, 00:28:00,VALID,916.68,VALID,0,VALID,100,VALID,0.101885,VALID,19.8832,VALID,144,VALID,0.101181,
2009-05-23, 00:29:00,VALID,916.685,VALID,0,VALID,100,VALID,0.118866,VALID,19.8698,VALID,141,VALID,0.380632,
2009-05-23, 00:30:00,VALID,916.678,VALID,0,VALID,100,VALID,0.101885,VALID,19.861,VALID,151,VALID,0.653587,
2009-05-23, 00:31:00,VALID,916.684,VALID,0,VALID,100,VALID,0.101885,VALID,19.8376,VALID,143,VALID,0.482469,
2009-05-23, 00:32:00,VALID,916.679,VALID,0,VALID,100,VALID,0.0509425,VALID,19.8281,VALID,137,VALID,0.463356,
2009-05-23, 00:33:00,VALID,916.707,VALID,0,VALID,100,VALID,0.135847,VALID,19.8213,VALID,130,VALID,0.325076,
2009-05-23, 00:34:00,VALID,916.719,VALID,0,VALID,100,VALID,0.118866,VALID,19.7984,VALID,126,VALID,0.22496,
2009-05-23, 00:35:00,VALID,916.717,VALID,0,VALID,100,VALID,0.118866,VALID,19.7954,VALID,132,VALID,0.0795785,
2009-05-23, 00:36:00,VALID,916.721,VALID,0,VALID,100,VALID,0.118866,VALID,19.7951,VALID,137,VALID,0.211846,
2009-05-23, 00:37:00,VALID,916.733,VALID,0,VALID,100,VALID,0.118866,VALID,19.7986,VALID,126,VALID,0.0152616,
2009-05-23, 00:38:00,VALID,916.72,VALID,0,VALID,100,VALID,0.118866,VALID,19.7854,VALID,128,VALID,0.0105469,
2009-05-23, 00:39:00,VALID,916.723,VALID,0,VALID,100,VALID,-0.0169808,VALID,19.7714,VALID,137,VALID,0.0638338,
2009-05-23, 00:40:00,VALID,916.712,VALID,0,VALID,100,VALID,-0.101885,VALID,19.7857,VALID,139,VALID,0.21689,
2009-05-23, 00:41:00,VALID,916.697,VALID,0,VALID,100,VALID,-0.118866,VALID,19.7659,VALID,137,VALID,0.188643,
2009-05-23, 00:42:00,VALID,916.693,VALID,0,VALID,100,VALID,-0.118866,VALID,19.7722,VALID,130,VALID,0.0941051,
2009-05-23, 00:43:00,VALID,916.675,VALID,0,VALID,100,VALID,-0.101885,VALID,19.7532,VALID,135,VALID,0.0868676,
2009-05-23, 00:44:00,VALID,916.664,VALID,0,VALID,100,VALID,-0.101885,VALID,19.7432,VALID,126,VALID,0.00213068,
2009-05-23, 00:45:00,VALID,916.653,VALID,0,VALID,100,VALID,-0.0849042,VALID,19.7138,VALID,116,VALID,0.00223214,
2009-05-23, 00:46:00,VALID,916.646,VALID,0,VALID,100,VALID,-0.0849042,VALID,19.701,VALID,104,VALID,0,
2009-05-23, 00:47:00,VALID,916.635,VALID,0,VALID,100,VALID,-0.101885,VALID,19.6818,VALID,97,VALID,0,
2009-05-23, 00:48:00,VALID,916.63,VALID,0,VALID,100,VALID,-0.101885,VALID,19.6489,VALID,106,VALID,0.160689,
2009-05-23, 00:49:00,VALID,916.612,VALID,0,VALID,100,VALID,-0.0849042,VALID,19.6584,VALID,112,VALID,0.263808,
2009-05-23, 00:50:00,VALID,916.603,VALID,0,VALID,100,VALID,-0.0339617,VALID,19.6377,VALID,107,VALID,0,
2009-05-23, 00:51:00,VALID,916.591,VALID,0,VALID,100,VALID,0.0169808,VALID,19.6214,VALID,103,VALID,0.158918,
2009-05-23, 00:52:01,VALID,916.584,VALID,0,VALID,100,VALID,0.0169808,VALID,19.6244,VALID,113,VALID,0.084484,
2009-05-23, 00:53:00,VALID,916.573,VALID,0,VALID,100,VALID,0.0169808,VALID,19.6117,VALID,118,VALID,0.00106534,
2009-05-23, 00:54:00,VALID,916.577,VALID,0,VALID,100,VALID,0.0339617,VALID,19.5955,VALID,105,VALID,0,
2009-05-23, 00:55:01,VALID,916.56,VALID,0,VALID,100,VALID,0,VALID,19.5922,VALID,116,VALID,0.0012429,
2009-05-23, 00:56:00,VALID,916.558,VALID,0,VALID,100,VALID,0,VALID,19.589,VALID,114,VALID,0,
2009-05-23, 00:57:00,VALID,916.559,VALID,0,VALID,100,VALID,0,VALID,19.5758,VALID,112,VALID,0,
2009-05-23, 00:58:00,VALID,916.523,VALID,0,VALID,100,VALID,0,VALID,19.5725,VALID,120,VALID,0,
2009-05-23, 00:59:00,VALID,916.523,VALID,0,VALID,100,VALID,0.0169808,VALID,19.579,VALID,144,VALID,0,
2009-05-23, 01:00:00,VALID,916.497,VALID,0,VALID,100,VALID,0.0169808,VALID,19.586,VALID,153,VALID,0,
2009-05-23, 01:01:00,VALID,916.496,VALID,0,VALID,100,VALID,-0.0169808,VALID,19.5897,VALID,132,VALID,0,
2009-05-23, 01:02:00,VALID,916.48,VALID,0,VALID,100,VALID,-0.0169808,VALID,19.5763,VALID,137,VALID,0,
2009-05-23, 01:03:00,VALID,916.488,VALID,0,VALID,100,VALID,-0.0169808,VALID,19.5862,VALID,130,VALID,0,
2009-05-23, 01:04:00,VALID,916.483,VALID,0,VALID,100,VALID,0.0169808,VALID,19.5563,VALID,138,VALID,0.152158,
2009-05-23, 01:05:00,VALID,916.487,VALID,0,VALID,100,VALID,0.0169808,VALID,19.5468,VALID,133,VALID,0,
2009-05-23, 01:06:01,VALID,916.482,VALID,0,VALID,100,VALID,0,VALID,19.5403,VALID,125,VALID,0.00120192,
2009-05-23, 01:07:00,VALID,916.498,VALID,0,VALID,100,VALID,0.0169808,VALID,19.5136,VALID,119,VALID,0,
2009-05-23, 01:08:01,VALID,916.505,VALID,0,VALID,100,VALID,0,VALID,19.5144,VALID,103,VALID,0,
2009-05-23, 01:09:00,VALID,916.501,VALID,0,VALID,100,VALID,-0.0849042,VALID,19.5126,VALID,127,VALID,0.00111607,
2009-05-23, 01:10:00,VALID,916.479,VALID,0,VALID,100,VALID,-0.101885,VALID,19.5061,VALID,139,VALID,0,
2009-05-23, 01:11:00,VALID,916.45,VALID,0,VALID,100,VALID,-0.101885,VALID,19.5096,VALID,146,VALID,0.0012718,
2009-05-23, 01:12:01,VALID,916.447,VALID,0,VALID,100,VALID,-0.101885,VALID,19.5156,VALID,148,VALID,0.00674716,
2009-05-23, 01:13:01,VALID,916.435,VALID,0,VALID,100,VALID,-0.0849042,VALID,19.5094,VALID,139,VALID,0.00266768,
2009-05-23, 01:14:01,VALID,916.417,VALID,0,VALID,100,VALID,-0.101885,VALID,19.4966,VALID,120,VALID,0,
2009-05-23, 01:15:00,VALID,916.394,VALID,0,VALID,100,VALID,-0.101885,VALID,19.4839,VALID,129,VALID,0,
2009-05-23, 01:16:00,VALID,916.378,VALID,0,VALID,100,VALID,-0.0849042,VALID,19.4802,VALID,137,VALID,0.146094,
2009-05-23, 01:17:00,VALID,916.379,VALID,0,VALID,100,VALID,-0.101885,VALID,19.4737,VALID,131,VALID,0.00850694,
2009-05-23, 01:18:00,VALID,916.367,VALID,0,VALID,100,VALID,-0.101885,VALID,19.4574,VALID,131,VALID,0.0230655,
2009-05-23, 01:19:01,VALID,916.372,VALID,0,VALID,100,VALID,-0.0509425,VALID,19.4477,VALID,128,VALID,0.14555,
2009-05-23, 01:20:00,VALID,916.356,VALID,0,VALID,100,VALID,-0.101885,VALID,19.4544,VALID,134,VALID,0.204102,
2009-05-23, 01:21:00,VALID,916.351,VALID,0,VALID,100,VALID,-0.101885,VALID,19.454,VALID,139,VALID,0.0755208,
2009-05-23, 01:22:01,VALID,916.359,VALID,0,VALID,100,VALID,-0.0849042,VALID,19.4477,VALID,136,VALID,0.00745739,
2009-05-23, 01:23:00,VALID,916.349,VALID,0,VALID,100,VALID,-0.101885,VALID,19.4609,VALID,138,VALID,0.00364583,
2009-05-23, 01:24:01,VALID,916.334,VALID,0,VALID,100,VALID,-0.0169808,VALID,19.4627,VALID,143,VALID,0.0801235,
2009-05-23, 01:25:00,VALID,916.333,VALID,0,VALID,100,VALID,0.0169808,VALID,19.4757,VALID,145,VALID,0.00890262,
2009-05-23, 01:26:01,VALID,916.305,VALID,0,VALID,100,VALID,-0.0169808,VALID,19.4595,VALID,146,VALID,0.00364583,
2009-05-23, 01:27:01,VALID,916.295,VALID,0,VALID,100,VALID,0.0169808,VALID,19.4595,VALID,148,VALID,0.208789,
2009-05-23, 01:28:01,VALID,916.266,VALID,0,VALID,100,VALID,0,VALID,19.4595,VALID,153,VALID,0.106585,
2009-05-23, 01:29:00,VALID,916.26,VALID,0,VALID,100,VALID,0.0169808,VALID,19.443,VALID,155,VALID,0.103849,
2009-05-23, 01:30:00,VALID,916.23,VALID,0,VALID,100,VALID,0,VALID,19.4298,VALID,152,VALID,0.156068,
2009-05-23, 01:31:00,VALID,916.209,VALID,0,VALID,100,VALID,-0.0169808,VALID,19.4335,VALID,157,VALID,0.0290698,
2009-05-23, 01:32:00,VALID,916.188,VALID,0,VALID,100,VALID,0,VALID,19.433,VALID,147,VALID,0.174107,
2009-05-23, 01:33:00,VALID,916.171,VALID,0,VALID,100,VALID,0,VALID,19.4462,VALID,152,VALID,0.15811,
2009-05-23, 01:34:01,VALID,916.154,VALID,0,VALID,100,VALID,0.0339617,VALID,19.43,VALID,149,VALID,0.262784,
2009-05-23, 01:35:01,VALID,916.148,VALID,0,VALID,100,VALID,0,VALID,19.4368,VALID,154,VALID,0.219494,
2009-05-23, 01:36:00,VALID,916.134,VALID,0,VALID,100,VALID,0,VALID,19.43,VALID,142,VALID,0.226181,
2009-05-23, 01:37:01,VALID,916.124,VALID,0,VALID,100,VALID,0.0339617,VALID,19.427,VALID,145,VALID,0.165179,
2009-05-23, 01:38:00,VALID,916.106,VALID,0,VALID,100,VALID,0.0169808,VALID,19.4138,VALID,145,VALID,0.150306,
2009-05-23, 01:39:01,VALID,916.11,VALID,0,VALID,100,VALID,0,VALID,19.4203,VALID,156,VALID,0.00742187,
2009-05-23, 01:40:01,VALID,916.104,VALID,0,VALID,100,VALID,-0.0339617,VALID,19.3908,VALID,153,VALID,0.192472,
2009-05-23, 01:41:01,VALID,916.11,VALID,0,VALID,100,VALID,0,VALID,19.4076,VALID,151,VALID,0.310724,
2009-05-23, 01:42:01,VALID,916.095,VALID,0,VALID,100,VALID,0.0169808,VALID,19.3973,VALID,174,VALID,0.599805,
2009-05-23, 01:43:01,VALID,916.108,VALID,0,VALID,100,VALID,-0.0169808,VALID,19.4041,VALID,171,VALID,0.235328,
2009-05-23, 01:44:01,VALID,916.11,VALID,0,VALID,100,VALID,0,VALID,19.4073,VALID,177,VALID,0.0590701,
2009-05-23, 01:45:01,VALID,916.11,VALID,0,VALID,100,VALID,-0.0169808,VALID,19.4003,VALID,166,VALID,0.105729,
2009-05-23, 01:46:00,VALID,916.102,VALID,0,VALID,100,VALID,0.0169808,VALID,19.3938,VALID,172,VALID,0.372456,
2009-05-23, 01:47:01,VALID,916.111,VALID,0,VALID,100,VALID,0.0169808,VALID,19.3806,VALID,163,VALID,0.0557776,
2009-05-23, 01:48:01,VALID,916.099,VALID,0,VALID,100,VALID,0,VALID,19.3878,VALID,167,VALID,0.135603,
2009-05-23, 01:49:01,VALID,916.084,VALID,0,VALID,100,VALID,0.0169808,VALID,19.3843,VALID,173,VALID,0.196456,
2009-05-23, 01:50:01,VALID,916.071,VALID,0,VALID,100,VALID,0.0169808,VALID,19.3711,VALID,174,VALID,0.17242,
2009-05-23, 01:51:01,VALID,916.06,VALID,0,VALID,100,VALID,0,VALID,19.3749,VALID,170,VALID,0.10016,
2009-05-23, 01:52:01,VALID,916.049,VALID,0,VALID,100,VALID,0,VALID,19.3614,VALID,183,VALID,0.341146,
2009-05-23, 01:53:01,VALID,916.046,VALID,0,VALID,100,VALID,0,VALID,19.3449,VALID,157,VALID,0.00609756,
2009-05-23, 01:54:01,VALID,916.038,VALID,0,VALID,100,VALID,-0.0849042,VALID,19.3302,VALID,166,VALID,0,
2009-05-23, 01:55:00,VALID,916.034,VALID,0,VALID,100,VALID,-0.101885,VALID,19.3209,VALID,161,VALID,0.00533537,
2009-05-23, 01:56:00,VALID,916.048,VALID,0,VALID,100,VALID,-0.135847,VALID,19.2977,VALID,172,VALID,0.0513139,
2009-05-23, 01:57:00,VALID,916.044,VALID,0,VALID,100,VALID,-0.0849042,VALID,19.295,VALID,179,VALID,0.0349702,
2009-05-23, 01:58:00,VALID,916.05,VALID,0,VALID,100,VALID,-0.0849042,VALID,19.2852,VALID,156,VALID,0.0352515,
2009-05-23, 01:59:00,VALID,916.054,VALID,0,VALID,100,VALID,-0.0849042,VALID,19.2882,VALID,184,VALID,0.114648,
2009-05-23, 02:00:00,VALID,916.06,VALID,0,VALID,100,VALID,-0.101885,VALID,19.275,VALID,155,VALID,0.0012429,
2009-05-23, 02:01:00,VALID,916.074,VALID,0,VALID,100,VALID,-0.118866,VALID,19.279,VALID,184,VALID,0,
2009-05-23, 02:02:00,VALID,916.073,VALID,0,VALID,100,VALID,-0.135847,VALID,19.2758,VALID,182,VALID,0.0288318,
2009-05-23, 02:03:00,VALID,916.066,VALID,0,VALID,100,VALID,-0.118866,VALID,19.2723,VALID,172,VALID,0,
2009-05-23, 02:04:00,VALID,916.066,VALID,0,VALID,100,VALID,-0.101885,VALID,19.2755,VALID,165,VALID,0.0012718,
2009-05-23, 02:05:00,VALID,916.069,VALID,0,VALID,100,VALID,-0.101885,VALID,19.2658,VALID,177,VALID,0,
2009-05-23, 02:06:00,VALID,916.076,VALID,0,VALID,100,VALID,-0.101885,VALID,19.2366,VALID,177,VALID,0,
2009-05-23, 02:07:00,VALID,916.082,VALID,0,VALID,100,VALID,-0.101885,VALID,19.2403,VALID,177,VALID,0,
2009-05-23, 02:08:00,VALID,916.088,VALID,0,VALID,100,VALID,-0.118866,VALID,19.2268,VALID,177,VALID,0,
2009-05-23, 02:09:00,VALID,916.092,VALID,0,VALID,100,VALID,-0.0169808,VALID,19.2094,VALID,176,VALID,0,
2009-05-23, 02:10:00,VALID,916.076,VALID,0,VALID,100,VALID,-0.0169808,VALID,19.1835,VALID,164,VALID,0,
2009-05-23, 02:11:00,VALID,916.084,VALID,0,VALID,100,VALID,0.0169808,VALID,19.151,VALID,164,VALID,0,
2009-05-23, 02:12:00,VALID,916.078,VALID,0,VALID,100,VALID,0,VALID,19.1318,VALID,164,VALID,0,
2009-05-23, 02:13:00,VALID,916.073,VALID,0,VALID,100,VALID,0,VALID,19.1181,VALID,164,VALID,0,
2009-05-23, 02:14:00,VALID,916.063,VALID,0,VALID,100,VALID,0.0169808,VALID,19.1054,VALID,164,VALID,0,
2009-05-23, 02:15:00,VALID,916.057,VALID,0,VALID,100,VALID,0.0169808,VALID,19.0891,VALID,163,VALID,0,
2009-05-23, 02:16:00,VALID,916.057,VALID,0,VALID,100,VALID,0.0169808,VALID,19.0599,VALID,157,VALID,0,
2009-05-23, 02:17:00,VALID,916.044,VALID,0,VALID,100,VALID,0,VALID,19.0402,VALID,166,VALID,0,
2009-05-23, 02:18:00,VALID,916.038,VALID,0,VALID,100,VALID,0.0169808,VALID,19.0472,VALID,168,VALID,0,
2009-05-23, 02:19:00,VALID,916.035,VALID,0,VALID,100,VALID,0,VALID,19.0238,VALID,170,VALID,0,
2009-05-23, 02:20:00,VALID,916.034,VALID,0,VALID,100,VALID,0,VALID,19.0145,VALID,166,VALID,0,
2009-05-23, 02:21:00,VALID,916.034,VALID,0,VALID,100,VALID,0.0339617,VALID,18.9983,VALID,160,VALID,0,
2009-05-23, 02:22:00,VALID,916.021,VALID,0,VALID,100,VALID,0.0169808,VALID,18.9689,VALID,154,VALID,0,
2009-05-23, 02:23:00,VALID,916.022,VALID,0,VALID,100,VALID,0,VALID,18.9302,VALID,153,VALID,0,
2009-05-23, 02:24:00,VALID,916.014,VALID,0,VALID,100,VALID,-0.0849042,VALID,18.898,VALID,140,VALID,0,
2009-05-23, 02:25:00,VALID,915.999,VALID,0,VALID,100,VALID,-0.101885,VALID,18.8827,VALID,131,VALID,0.206731,
2009-05-23, 02:26:00,VALID,915.988,VALID,0,VALID,100,VALID,-0.118866,VALID,18.8702,VALID,126,VALID,0.233631,
2009-05-23, 02:27:00,VALID,915.979,VALID,0,VALID,100,VALID,-0.101885,VALID,18.8281,VALID,133,VALID,0.0187872,
2009-05-23, 02:28:00,VALID,915.964,VALID,0,VALID,100,VALID,-0.101885,VALID,18.8183,VALID,133,VALID,0.15189,
2009-05-23, 02:29:00,VALID,915.95,VALID,0,VALID,100,VALID,-0.101885,VALID,18.8114,VALID,139,VALID,0.27846,
2009-05-23, 02:30:00,VALID,915.93,VALID,0,VALID,100,VALID,-0.101885,VALID,18.8178,VALID,137,VALID,0.167783,
2009-05-23, 02:31:00,VALID,915.91,VALID,0,VALID,100,VALID,-0.135847,VALID,18.8051,VALID,131,VALID,0.0714844,
2009-05-23, 02:32:00,VALID,915.903,VALID,0,VALID,100,VALID,-0.0849042,VALID,18.7889,VALID,123,VALID,0.169876,
2009-05-23, 02:33:00,VALID,915.902,VALID,0,VALID,100,VALID,-0.101885,VALID,18.7724,VALID,112,VALID,0.103516,
2009-05-23, 02:34:00,VALID,915.899,VALID,0,VALID,100,VALID,-0.101885,VALID,18.7595,VALID,107,VALID,0.00617733,
2009-05-23, 02:35:00,VALID,915.908,VALID,0,VALID,100,VALID,-0.101885,VALID,18.75,VALID,96,VALID,0,
2009-05-23, 02:36:00,VALID,915.914,VALID,0,VALID,100,VALID,-0.101885,VALID,18.7365,VALID,123,VALID,0.173611,
2009-05-23, 02:37:00,VALID,915.913,VALID,0,VALID,100,VALID,-0.0169808,VALID,18.7483,VALID,138,VALID,0.0533854,
2009-05-23, 02:38:00,VALID,915.911,VALID,0,VALID,100,VALID,0,VALID,18.7613,VALID,134,VALID,0.00142045,
2009-05-23, 02:39:00,VALID,915.911,VALID,0,VALID,100,VALID,0,VALID,18.7576,VALID,122,VALID,0,
2009-05-23, 02:40:00,VALID,915.91,VALID,0,VALID,100,VALID,0.0339617,VALID,18.7638,VALID,119,VALID,0,
2009-05-23, 02:41:00,VALID,915.916,VALID,0,VALID,100,VALID,0,VALID,18.7606,VALID,119,VALID,0,
2009-05-23, 02:42:00,VALID,915.928,VALID,0,VALID,100,VALID,0.0169808,VALID,18.7805,VALID,119,VALID,0,
2009-05-23, 02:43:00,VALID,915.934,VALID,0,VALID,100,VALID,0.0339617,VALID,18.7773,VALID,119,VALID,0,
2009-05-23, 02:44:00,VALID,915.948,VALID,0,VALID,100,VALID,0,VALID,18.7513,VALID,119,VALID,0,
2009-05-23, 02:45:00,VALID,915.945,VALID,0,VALID,100,VALID,0.0169808,VALID,18.7154,VALID,119,VALID,0,
2009-05-23, 02:46:00,VALID,915.924,VALID,0,VALID,100,VALID,0.0339617,VALID,18.7323,VALID,117,VALID,0,
2009-05-23, 02:47:00,VALID,915.908,VALID,0,VALID,100,VALID,0.0169808,VALID,18.7156,VALID,116,VALID,0,
2009-05-23, 02:48:00,VALID,915.904,VALID,0,VALID,100,VALID,0.0339617,VALID,18.6795,VALID,116,VALID,0,
2009-05-23, 02:49:00,VALID,915.895,VALID,0,VALID,100,VALID,0.0169808,VALID,18.6408,VALID,116,VALID,0,
2009-05-23, 02:50:00,VALID,915.884,VALID,0,VALID,100,VALID,0.0169808,VALID,18.6118,VALID,115,VALID,0,
2009-05-23, 02:51:00,VALID,915.867,VALID,0,VALID,100,VALID,0,VALID,18.5891,VALID,113,VALID,0,
2009-05-23, 02:52:00,VALID,915.859,VALID,0,VALID,100,VALID,0.0169808,VALID,18.5368,VALID,113,VALID,0,
2009-05-23, 02:53:00,VALID,915.858,VALID,0,VALID,100,VALID,0.0169808,VALID,18.5083,VALID,113,VALID,0,
2009-05-23, 02:54:00,VALID,915.857,VALID,0,VALID,100,VALID,-0.0679233,VALID,18.4863,VALID,124,VALID,0,
2009-05-23, 02:55:00,VALID,915.858,VALID,0,VALID,100,VALID,-0.0679233,VALID,18.4698,VALID,142,VALID,0,
2009-05-23, 02:56:00,VALID,915.864,VALID,0,VALID,100,VALID,-0.0679233,VALID,18.4601,VALID,145,VALID,0,
2009-05-23, 02:57:00,VALID,915.864,VALID,0,VALID,100,VALID,-0.0339617,VALID,18.4606,VALID,149,VALID,0.043423,
2009-05-23, 02:58:00,VALID,915.873,VALID,0,VALID,100,VALID,-0.0509425,VALID,18.4601,VALID,133,VALID,0,
2009-05-23, 02:59:00,VALID,915.866,VALID,0,VALID,100,VALID,-0.0679233,VALID,18.4703,VALID,142,VALID,0,
2009-05-23, 03:00:00,VALID,915.874,VALID,0,VALID,100,VALID,-0.0679233,VALID,18.4738,VALID,148,VALID,0,
2009-05-23, 03:01:00,VALID,915.887,VALID,0,VALID,100,VALID,-0.0679233,VALID,18.4703,VALID,147,VALID,0,
2009-05-23, 03:02:00,VALID,915.895,VALID,0,VALID,100,VALID,-0.0679233,VALID,18.4798,VALID,146,VALID,0,
2009-05-23, 03:03:00,VALID,915.886,VALID,0,VALID,100,VALID,-0.0849042,VALID,18.4858,VALID,146,VALID,0,
2009-05-23, 03:04:00,VALID,915.893,VALID,0,VALID,100,VALID,-0.0849042,VALID,18.4958,VALID,146,VALID,0,
2009-05-23, 03:05:00,VALID,915.88,VALID,0,VALID,100,VALID,-0.0849042,VALID,18.5057,VALID,146,VALID,0,
2009-05-23, 03:06:00,VALID,915.88,VALID,0,VALID,100,VALID,-0.0679233,VALID,18.4993,VALID,146,VALID,0,
2009-05-23, 03:07:00,VALID,915.877,VALID,0,VALID,100,VALID,-0.0849042,VALID,18.4997,VALID,146,VALID,0,
2009-05-23, 03:08:00,VALID,915.875,VALID,0,VALID,100,VALID,-0.0679233,VALID,18.506,VALID,146,VALID,0,
2009-05-23, 03:09:00,VALID,915.881,VALID,0,VALID,100,VALID,-0.0849042,VALID,18.5122,VALID,146,VALID,0,
2009-05-23, 03:10:00,VALID,915.887,VALID,0,VALID,100,VALID,-0.0849042,VALID,18.5055,VALID,146,VALID,0,
2009-05-23, 03:11:00,VALID,915.875,VALID,0,VALID,100,VALID,-0.0849042,VALID,18.5088,VALID,146,VALID,0,
2009-05-23, 03:12:00,VALID,915.882,VALID,0,VALID,100,VALID,-0.101885,VALID,18.4731,VALID,146,VALID,0,
2009-05-23, 03:13:00,VALID,915.891,VALID,0,VALID,100,VALID,-0.0679233,VALID,18.4798,VALID,146,VALID,0,
2009-05-23, 03:14:00,VALID,915.881,VALID,0,VALID,100,VALID,-0.0339617,VALID,18.4925,VALID,146,VALID,0,
2009-05-23, 03:15:00,VALID,915.877,VALID,0,VALID,100,VALID,-0.0849042,VALID,18.4993,VALID,146,VALID,0,
2009-05-23, 03:16:00,VALID,915.867,VALID,0,VALID,100,VALID,-0.0339617,VALID,18.4277,VALID,146,VALID,0,
2009-05-23, 03:17:00,VALID,915.864,VALID,0,VALID,100,VALID,-0.0679233,VALID,18.3695,VALID,146,VALID,0,
2009-05-23, 03:18:00,VALID,915.855,VALID,0,VALID,100,VALID,-0.0509425,VALID,18.3304,VALID,146,VALID,0,
2009-05-23, 03:19:00,VALID,915.86,VALID,0,VALID,100,VALID,-0.0679233,VALID,18.3403,VALID,146,VALID,0,
2009-05-23, 03:20:00,VALID,915.872,VALID,0,VALID,100,VALID,-0.0849042,VALID,18.3174,VALID,137,VALID,0,
2009-05-23, 03:21:00,VALID,915.866,VALID,0,VALID,100,VALID,-0.0679233,VALID,18.2567,VALID,122,VALID,0,
2009-05-23, 03:22:00,VALID,915.882,VALID,0,VALID,100,VALID,-0.0849042,VALID,18.1914,VALID,118,VALID,0,
2009-05-23, 03:23:00,VALID,915.895,VALID,0,VALID,100,VALID,-0.118866,VALID,18.1036,VALID,98,VALID,0,
2009-05-23, 03:24:00,VALID,915.9,VALID,0,VALID,100,VALID,-0.0169808,VALID,18.0837,VALID,104,VALID,0,
2009-05-23, 03:25:00,VALID,915.886,VALID,0,VALID,100,VALID,0,VALID,18.0471,VALID,104,VALID,0,
2009-05-23, 03:26:00,VALID,915.888,VALID,0,VALID,100,VALID,0,VALID,18.0316,VALID,104,VALID,0,
2009-05-23, 03:27:00,VALID,915.869,VALID,0,VALID,100,VALID,-0.0339617,VALID,18.0642,VALID,104,VALID,0,
2009-05-23, 03:28:00,VALID,915.865,VALID,0,VALID,100,VALID,0.0169808,VALID,18.1221,VALID,104,VALID,0,
2009-05-23, 03:29:00,VALID,915.874,VALID,0,VALID,100,VALID,0,VALID,18.1768,VALID,104,VALID,0,
2009-05-23, 03:30:00,VALID,915.868,VALID,0,VALID,100,VALID,0,VALID,18.1833,VALID,104,VALID,0,
2009-05-23, 03:31:00,VALID,915.867,VALID,0,VALID,100,VALID,0,VALID,18.0927,VALID,104,VALID,0,
2009-05-23, 03:32:00,VALID,915.865,VALID,0,VALID,100,VALID,0,VALID,18.0668,VALID,104,VALID,0,
2009-05-23, 03:33:00,VALID,915.876,VALID,0,VALID,100,VALID,0.0169808,VALID,18.086,VALID,104,VALID,0,
2009-05-23, 03:34:00,VALID,915.877,VALID,0,VALID,100,VALID,0.0509425,VALID,18.0797,VALID,104,VALID,0,
2009-05-23, 03:35:00,VALID,915.877,VALID,0,VALID,100,VALID,0,VALID,18.0797,VALID,104,VALID,0,
2009-05-23, 03:36:00,VALID,915.869,VALID,0,VALID,100,VALID,0.0169808,VALID,18.0374,VALID,104,VALID,0,
2009-05-23, 03:37:00,VALID,915.868,VALID,0,VALID,100,VALID,0.0339617,VALID,17.9755,VALID,104,VALID,0,
2009-05-23, 03:38:00,VALID,915.88,VALID,0,VALID,100,VALID,0.0679233,VALID,17.9593,VALID,104,VALID,0,
2009-05-23, 03:39:00,VALID,915.888,VALID,0,VALID,100,VALID,0.0169808,VALID,17.9405,VALID,104,VALID,0,
2009-05-23, 03:40:00,VALID,915.878,VALID,0,VALID,100,VALID,0,VALID,17.9403,VALID,104,VALID,0,
2009-05-23, 03:41:00,VALID,915.87,VALID,0,VALID,100,VALID,0,VALID,17.9697,VALID,104,VALID,0,
2009-05-23, 03:42:00,VALID,915.877,VALID,0,VALID,100,VALID,0,VALID,17.9788,VALID,104,VALID,0,
2009-05-23, 03:43:00,VALID,915.866,VALID,0,VALID,100,VALID,0,VALID,17.9952,VALID,104,VALID,0,
2009-05-23, 03:44:00,VALID,915.871,VALID,0,VALID,100,VALID,-0.0169808,VALID,17.9954,VALID,104,VALID,0,
2009-05-23, 03:45:00,VALID,915.874,VALID,0,VALID,100,VALID,0.0169808,VALID,17.9658,VALID,104,VALID,0,